[[{"header":{"parameterUnit":"m.s-1","parameterCategory":1,"la1":30.2991,"la2":30.254,"lo1":-89.0895,"lo2":-89.0444,"dy":0.0017,"dx":0.0017,"nx":28,"ny":28,"refTime":"2024-08-31T09:00:00:Z","depth":0,"parameterNumber":2,"parameterNumberName":"U-component_of_WINDS"},"data":[0,0,0,0,0,0,0,0,0,0,0,0,0,0,0,0,0,0,0,0,0,0,0,0,0,0,0,0,0,0,0,0,0,0,0,0,0,0,0,0,0,0,0,0,0,0,0,0,0,0,0,0,0,0,0,0,0,0,-3.0809,-3.0808,0,-3.0798,-3.0798,-3.0798,-3.0651,-3.0647,-3.0643,-3.064,-3.063,-3.0634,-3.0637,0,0,0,0,0,0,0,0,0,0,0,0,0,-3.0701,-3.0704,-3.0809,-3.0808,-3.0808,-3.0798,-3.0798,-3.0798,-3.0651,-3.0647,-3.0642,-3.0638,-3.0629,-3.0633,-3.0637,0,0,0,0,0,0,0,0,0,0,0,0,0,-3.0725,-3.0705,-3.0809,-3.0734,-3.0727,-3.0798,-3.0798,-3.0798,-3.0652,-3.0647,-3.0641,-3.0636,-3.0628,-3.0633,-3.0638,-3.078,0,0,-3.0652,-3.0654,0,0,0,0,0,0,0,0,-3.0724,-3.0729,-3.0745,-3.0739,-3.0732,-3.072,-3.0757,-3.0792,-3.0654,-3.0681,-3.064,-3.0633,-3.0665,-3.0666,-3.0677,-3.0779,-3.0779,-3.0653,-3.0656,-3.0658,-3.0659,0,0,0,0,0,0,0,-3.0722,-3.0729,-3.0804,-3.0745,-3.0737,-3.0701,-3.0698,-3.0763,-3.0705,-3.0678,-3.0667,-3.0668,-3.066,-3.0672,-3.0675,-3.0779,-3.0653,-3.0657,-3.066,-3.0662,-3.0997,-3.1003,0,0,0,0,0,0,-3.0731,-3.0728,-3.0805,-3.0804,-3.0714,-3.0707,-3.0704,-3.073,-3.0703,-3.0694,-3.0673,-3.0661,-3.0667,-3.067,-3.0675,-3.0839,-3.0658,-3.0662,-3.0665,-3.0991,-3.0998,-3.1005,0,0,0,0,0,0,-3.0729,-3.0739,-3.0805,-3.0763,-3.0769,-3.0715,-3.0745,-3.0732,-3.0744,-3.0699,-3.0688,-3.0696,-3.0663,-3.0668,-3.0755,-3.0836,-3.0665,-3.0669,-3.0984,-3.0993,-3.1002,-3.1169,0,0,0,0,0,0,-3.0727,-3.0739,-3.0793,-3.0766,-3.0772,-3.0886,-3.075,-3.0736,-3.0753,-3.0738,-3.0718,-3.071,-3.0659,-3.0748,-3.0759,-3.084,-3.0673,-3.0976,-3.0988,-3.0999,-3.1156,-3.1183,-3.1206,0,0,0,0,0,-3.0723,-3.0841,-3.0797,-3.0807,-3.0838,-3.0891,-3.0894,-3.0833,-3.076,-3.0814,-3.0785,-3.071,-3.0826,-3.0758,-3.077,-3.0853,-3.0971,-3.0985,-3.0998,-3.1145,-3.1177,-3.1205,0,0,0,0,0,0,-3.088,-3.0836,-3.0786,-3.0898,-3.09,-3.0866,-3.0931,-3.0869,-3.0891,-3.0876,-3.0799,-3.0796,-3.0894,-3.0882,-3.0808,-3.0989,-3.0885,-3.0902,-3.0993,-3.1024,-3.1048,-3.1049,-3.0677,0,0,0,0,0,-3.0927,-3.0974,-3.0933,-3.1036,-3.1039,-3.0986,-3.1006,-3.0959,-3.0957,-3.0957,-3.0934,-3.0935,-3.0971,-3.0997,-3.1028,-3.1154,-3.1147,-3.1217,-3.1241,-3.1262,-3.1277,-3.1342,-3.1372,-3.1049,-3.1049,-3.1049,0,0,-3.1026,-3.1008,-3.1042,-3.1067,-3.1062,-3.1112,-3.0987,-3.1045,-3.1082,-3.0966,-3.1046,-3.103,-3.1026,-3.1133,-3.1179,-3.1126,-3.1365,-3.1279,-3.1296,-3.1299,-3.1359,-3.1389,-3.1417,-3.1058,-3.1057,-3.1055,0,0,-3.123,-3.1222,-3.1306,-3.1304,-3.1298,-3.1262,-3.1282,-3.1258,-3.1243,-3.1322,-3.1236,-3.1278,-3.1342,-3.1343,-3.1352,-3.1557,-3.149,-3.157,-3.1699,-3.1763,-3.1788,-3.181,-3.1883,-3.191,-3.1585,-3.1585,-3.1585,0,-3.1354,-3.1425,-3.1357,-3.1421,-3.1435,-3.1332,-3.1416,-3.1418,-3.1423,-3.1435,-3.1375,-3.1453,-3.1443,-3.1549,-3.1599,-3.161,-3.163,-3.1571,-3.179,-3.1812,-3.1831,-3.19,-3.1927,-3.1595,-3.1594,-3.1593,-3.1592,0,-3.1577,-3.1628,-3.1697,-3.1704,-3.1725,-3.1799,-3.1742,-3.1772,-3.1723,-3.1693,-3.1775,-3.176,-3.1786,-3.1807,-3.176,-3.1906,-3.1873,-3.1804,-3.1698,-3.1873,-3.1936,-3.1962,-3.1609,-3.1605,-3.1602,-3.16,0,0,-3.1879,-3.1848,-3.1874,-3.1875,-3.1862,-3.19,-3.1969,-3.1994,-3.2021,-3.2028,-3.2084,-3.2141,-3.2076,-3.2086,-3.2038,-3.2095,-3.2258,-3.2018,-3.2016,-3.2062,-3.2417,-3.2469,-3.2501,-3.2213,-3.2218,-3.2222,-3.2417,0,-3.2076,-3.2192,-3.2133,-3.2257,-3.2303,-3.2206,-3.2267,-3.2265,-3.2239,-3.2275,-3.2246,-3.2287,-3.2199,-3.2204,-3.2256,-3.2227,-3.2328,-3.2213,-3.2265,-3.2267,-3.2268,-3.2533,-3.2589,-3.2774,-3.2441,-3.2446,-3.2449,0,-3.2321,-3.2338,-3.2467,-3.2444,-3.2461,-3.2516,-3.2534,-3.2569,-3.2565,-3.2542,-3.2554,-3.2493,-3.2559,-3.2455,-3.2546,-3.2468,-3.2486,-3.2476,-3.2481,-3.2483,-3.2368,-3.2542,-3.2831,-3.2859,-3.2487,-3.2484,-3.2481,0,-3.2528,-3.2583,-3.2666,-3.2671,-3.2647,-3.2688,-3.268,-3.267,-3.2689,-3.2704,-3.2716,-3.274,-3.2753,-3.2773,-3.2719,-3.2649,-3.2817,-3.2709,-3.28,-3.2801,-3.2839,-3.2837,-3.3134,-3.2852,-3.2852,-3.2851,-3.2851,0,-3.2753,-3.2835,-3.2759,-3.281,-3.2899,-3.2831,-3.2921,-3.2903,-3.2895,-3.2941,-3.2859,-3.2905,-3.2832,-3.287,-3.2829,-3.291,-3.2917,-3.29,-3.2888,-3.2906,-3.2909,-3.2916,-3.2902,-3.2859,-3.2857,-3.2856,-3.2854,0,-3.2998,-3.295,-3.3035,-3.3005,-3.3,-3.3067,-3.3041,-3.3087,-3.3056,-3.3115,-3.3125,-3.3076,-3.3117,-3.3066,-3.3102,-3.3074,-3.3184,-3.3153,-3.3185,-3.3176,-3.3269,-3.3261,-3.3582,-3.362,-3.3315,-3.3318,-3.332,0,-3.3145,-3.3205,-3.3182,-3.3207,-3.3203,-3.3245,-3.3263,-3.3198,-3.3221,-3.3221,-3.3268,-3.3301,-3.3324,-3.3394,-3.3361,-3.3389,-3.3357,-3.3468,-3.3361,-3.3378,-3.3358,-3.3354,-3.336,-3.3489,-3.3493,-3.3496,-3.3498,0,-3.3409,-3.3383,-3.3412,-3.3434,-3.3458,-3.3472,-3.348,-3.3505,-3.3437,-3.3467,-3.3507,-3.3526,-3.3562,-3.3596,-3.3615,-3.3606,-3.3542,-3.3533,-3.3555,-3.3574,-3.359,-3.3582,-3.3244,-3.3525,-3.3522,-3.352,-3.3519,-3.3518,-3.3608,-3.3658,-3.3649,-3.3684,-3.3684,-3.3693,-3.3735,-3.3709,-3.3741,-3.3765,-3.3725,-3.3776,-3.377,-3.3788,-3.3787,-3.3826,-3.3778,-3.3811,-3.3819,-3.3827,-3.3841,-3.3585,-3.3829,-3.3828,-3.3827,-3.3827,-3.3826,0,-3.3868,-3.3857,-3.3891,-3.3904,-3.3932,-3.3869,-3.3874,-3.3902,-3.3948,-3.3948,-3.3972,-3.4019,-3.4052,-3.4022,-3.4049,-3.4086,-3.4057,-3.4095,-3.4091,-3.409,-3.3883,-3.386,-3.4118,-3.4118,-3.4118,-3.4118,-3.4118,-3.4118,-3.4006,-3.4085,-3.4058,-3.4137,-3.4125,-3.4174,-3.4182,-3.4191,-3.419,-3.4245,-3.4272,-3.4253,-3.4241,-3.4266,-3.4294,-3.4284,-3.4298,-3.4347,-3.4327,-3.4133,-3.4105,-3.4077,-3.4056,-3.435,-3.4351,-3.453,-3.4532,-3.4533]},{"header":{"parameterUnit":"m.s-1","parameterCategory":1,"la1":30.2991,"la2":30.254,"lo1":-89.0895,"lo2":-89.0444,"dy":0.0017,"dx":0.0017,"nx":28,"ny":28,"refTime":"2024-08-31T09:00:00:Z","depth":0,"parameterNumber":3,"parameterNumberName":"V-component_of_WINDS"},"data":[0,0,0,0,0,0,0,0,0,0,0,0,0,0,0,0,0,0,0,0,0,0,0,0,0,0,0,0,0,0,0,0,0,0,0,0,0,0,0,0,0,0,0,0,0,0,0,0,0,0,0,0,0,0,0,0,0,0,-1.1896,-1.1897,0,-1.1951,-1.1952,-1.1952,-1.1997,-1.1997,-1.1997,-1.1998,-1.2051,-1.2052,-1.2053,0,0,0,0,0,0,0,0,0,0,0,0,0,-1.1826,-1.1827,-1.1896,-1.1897,-1.1897,-1.1951,-1.1952,-1.1952,-1.1996,-1.1997,-1.1998,-1.1998,-1.2051,-1.2052,-1.2053,0,0,0,0,0,0,0,0,0,0,0,0,0,-1.1866,-1.1828,-1.1896,-1.1926,-1.1929,-1.1951,-1.1952,-1.1952,-1.1996,-1.1997,-1.1998,-1.1998,-1.205,-1.2052,-1.2053,-1.2048,0,0,-1.2058,-1.2058,0,0,0,0,0,0,0,0,-1.1864,-1.1869,-1.1921,-1.1924,-1.1928,-1.1968,-1.1946,-1.1984,-1.1996,-1.1971,-1.1998,-1.1999,-1.2022,-1.2026,-1.2035,-1.2051,-1.2053,-1.2058,-1.2059,-1.2059,-1.206,0,0,0,0,0,0,0,-1.1861,-1.1867,-1.1918,-1.1921,-1.1926,-1.1936,-1.1942,-1.1954,-1.1992,-1.1973,-1.1976,-1.1982,-1.2024,-1.2033,-1.2036,-1.2054,-1.2058,-1.2059,-1.206,-1.2061,-1.2067,-1.2066,0,0,0,0,0,0,-1.1854,-1.1864,-1.1916,-1.1919,-1.1897,-1.1936,-1.1944,-1.1954,-1.1992,-1.1998,-1.1982,-1.1984,-1.2031,-1.2035,-1.2039,-1.2034,-1.2059,-1.2061,-1.2061,-1.2068,-1.2067,-1.2066,0,0,0,0,0,0,-1.1852,-1.1858,-1.1914,-1.1893,-1.19,-1.1937,-1.1948,-1.1955,-1.1964,-1.1999,-1.2005,-1.1984,-1.2031,-1.2036,-1.2045,-1.2037,-1.2061,-1.2063,-1.2068,-1.2067,-1.2066,-1.2026,0,0,0,0,0,0,-1.185,-1.1857,-1.1857,-1.1892,-1.1901,-1.1921,-1.1948,-1.1955,-1.1967,-1.197,-1.2003,-1.2009,-1.2032,-1.2043,-1.2047,-1.2039,-1.2064,-1.2069,-1.2068,-1.2067,-1.2028,-1.2024,-1.202,0,0,0,0,0,-1.1848,-1.1843,-1.1857,-1.1863,-1.1902,-1.192,-1.1925,-1.1953,-1.1966,-1.1965,-1.1987,-1.2008,-1.2037,-1.2044,-1.2048,-1.2041,-1.207,-1.2068,-1.2067,-1.203,-1.2025,-1.202,0,0,0,0,0,0,-1.1805,-1.1848,-1.1864,-1.1871,-1.1891,-1.1928,-1.1927,-1.1947,-1.1964,-1.1966,-1.2,-1.2006,-1.2011,-1.2027,-1.2033,-1.2037,-1.2056,-1.2055,-1.2027,-1.2022,-1.2018,-1.2013,-1.2065,0,0,0,0,0,-1.1796,-1.1809,-1.1846,-1.1848,-1.1858,-1.1891,-1.19,-1.192,-1.1942,-1.1951,-1.1974,-1.1994,-1.2007,-1.2016,-1.203,-1.2031,-1.2038,-1.2028,-1.2024,-1.2021,-1.2019,-1.2019,-1.2015,-1.2061,-1.2061,-1.2061,0,0,-1.1778,-1.1804,-1.1809,-1.184,-1.1859,-1.1869,-1.1898,-1.1908,-1.1916,-1.1952,-1.1962,-1.1979,-1.2004,-1.2008,-1.2011,-1.2021,-1.2008,-1.2019,-1.2015,-1.2016,-1.2017,-1.2013,-1.2009,-1.206,-1.206,-1.206,0,0,-1.1752,-1.1773,-1.1776,-1.1794,-1.1822,-1.1844,-1.1844,-1.1878,-1.1891,-1.1901,-1.1928,-1.1938,-1.1961,-1.1977,-1.1988,-1.1966,-1.1985,-1.197,-1.1948,-1.1948,-1.1944,-1.1941,-1.1932,-1.1928,-1.1969,-1.1969,-1.1969,0,-1.1726,-1.1744,-1.1776,-1.1785,-1.1796,-1.183,-1.1834,-1.1849,-1.188,-1.1887,-1.1898,-1.1927,-1.1946,-1.1954,-1.1949,-1.1957,-1.1958,-1.1966,-1.1942,-1.1939,-1.1937,-1.1929,-1.1925,-1.1967,-1.1967,-1.1967,-1.1967,0,-1.171,-1.1723,-1.1722,-1.1752,-1.1764,-1.177,-1.1801,-1.1809,-1.1828,-1.1848,-1.1857,-1.1881,-1.1901,-1.1904,-1.1922,-1.1914,-1.192,-1.1936,-1.1955,-1.193,-1.1923,-1.192,-1.1964,-1.1964,-1.1965,-1.1966,0,0,-1.1658,-1.1704,-1.1703,-1.1717,-1.1749,-1.1759,-1.1766,-1.1786,-1.1791,-1.1811,-1.1817,-1.1836,-1.1851,-1.1863,-1.1884,-1.1884,-1.1863,-1.19,-1.1901,-1.1891,-1.1854,-1.184,-1.1836,-1.1876,-1.1876,-1.1875,-1.1851,0,-1.1635,-1.165,-1.1678,-1.1684,-1.1695,-1.1727,-1.1733,-1.1752,-1.1771,-1.1782,-1.1803,-1.1815,-1.1835,-1.1843,-1.1844,-1.1865,-1.1856,-1.1867,-1.188,-1.188,-1.1872,-1.1833,-1.1819,-1.1795,-1.1849,-1.1848,-1.1848,0,-1.1611,-1.1629,-1.1636,-1.1667,-1.1672,-1.1677,-1.1697,-1.1708,-1.1731,-1.1744,-1.1758,-1.178,-1.1788,-1.1806,-1.1816,-1.1823,-1.183,-1.1841,-1.1841,-1.1842,-1.1862,-1.1832,-1.1788,-1.1784,-1.1844,-1.1844,-1.1845,0,-1.157,-1.1596,-1.1604,-1.1614,-1.1651,-1.1653,-1.1668,-1.1692,-1.1702,-1.1719,-1.1725,-1.1743,-1.1752,-1.1764,-1.179,-1.1801,-1.1797,-1.1818,-1.1807,-1.1806,-1.1803,-1.1803,-1.1759,-1.181,-1.181,-1.181,-1.181,0,-1.1541,-1.1543,-1.1586,-1.159,-1.1593,-1.1625,-1.1627,-1.1645,-1.1666,-1.1673,-1.1702,-1.1708,-1.1742,-1.1752,-1.1772,-1.1776,-1.178,-1.179,-1.1796,-1.1787,-1.1786,-1.1791,-1.1793,-1.1809,-1.1809,-1.1809,-1.181,0,-1.1495,-1.1524,-1.1534,-1.1568,-1.1576,-1.1577,-1.1606,-1.161,-1.1631,-1.164,-1.1644,-1.1675,-1.1688,-1.1715,-1.1735,-1.1749,-1.1748,-1.1758,-1.174,-1.1743,-1.173,-1.173,-1.1687,-1.1683,-1.1737,-1.1737,-1.1736,0,-1.1475,-1.1477,-1.1512,-1.1519,-1.1533,-1.1545,-1.1555,-1.1586,-1.1595,-1.1621,-1.1622,-1.1637,-1.1651,-1.167,-1.1694,-1.1709,-1.1719,-1.1702,-1.1721,-1.1712,-1.1717,-1.1716,-1.1715,-1.1698,-1.1697,-1.1696,-1.1696,0,-1.1434,-1.1448,-1.1462,-1.148,-1.1492,-1.1508,-1.1525,-1.153,-1.1565,-1.1573,-1.1587,-1.1598,-1.1618,-1.1632,-1.1651,-1.1665,-1.1686,-1.169,-1.1688,-1.1679,-1.1668,-1.1672,-1.1727,-1.1691,-1.1691,-1.1692,-1.1692,-1.1692,-1.1399,-1.1403,-1.1427,-1.1441,-1.1458,-1.1473,-1.1479,-1.15,-1.1513,-1.1532,-1.155,-1.1561,-1.1583,-1.161,-1.1623,-1.1632,-1.1643,-1.164,-1.1639,-1.1638,-1.1633,-1.1668,-1.1636,-1.1636,-1.1636,-1.1636,-1.1637,0,-1.1359,-1.1376,-1.1389,-1.1413,-1.1423,-1.1443,-1.1463,-1.1471,-1.1481,-1.15,-1.1513,-1.1528,-1.1541,-1.1567,-1.1582,-1.1584,-1.1594,-1.1587,-1.1586,-1.1589,-1.1624,-1.1624,-1.1579,-1.1579,-1.1579,-1.1579,-1.1579,-1.1579,-1.1339,-1.1345,-1.1362,-1.1376,-1.1393,-1.1405,-1.1415,-1.1429,-1.1444,-1.146,-1.1471,-1.1488,-1.1509,-1.1526,-1.1539,-1.1546,-1.155,-1.154,-1.1549,-1.1581,-1.1587,-1.1592,-1.1592,-1.1541,-1.1541,-1.1513,-1.1513,-1.1513]}]]